Fort Morgan, CO

2:13 AM MST on January 18, 2017 (GMT -0700)
Fort Morgan

Weather History for KFMM - March, 2013

Change the Weather History Date:

Thursday, March 14, 2013

  Actual Average (KAKO) Record (KAKO)
Temperature  
Mean Temperature 51 °F -  
Max Temperature 70 °F 50 °F 76 °F (2003)
Min Temperature 32 °F 25 °F 6 °F (1954)
Degree Days  
Heating Degree Days 14    
Growing Degree Days 1 (Base 50)    
Moisture  
Dew Point 30 °F    
Average Humidity 54    
Maximum Humidity 89    
Minimum Humidity 15    
Precipitation  
Precipitation 0.00 in - - ()
Sea Level Pressure  
Sea Level Pressure 30.21 in    
Wind  
Wind Speed 7 mph (WSW)    
Max Wind Speed 12 mph    
Max Gust Speed 18 mph    
Visibility 10 miles    
Events      
Averages and records for this station are not official NWS values.
T = Trace of Precipitation, MM = Missing Value Source: NWS Daily Summary

Daily Weather History Graph

Daily Weather History Graph

Search for Another Location

Airport or City:

Trip Planner

Search our weather history database for the weather conditions in past years. The results will help you decide how hot, cold, wet, or windy it might be!

Date:

Astronomy

Mar. 14, 2013 Rise Set
Actual Time 7:07 AM MDT 7:01 PM MDT
Civil Twilight 6:40 AM MDT 7:28 PM MDT
Nautical Twilight 6:09 AM MDT 8:00 PM MDT
Astronomical Twilight 5:37 AM MDT 8:32 PM MDT
Moon 8:22 AM MDT (3/14) 10:20 PM MDT (3/14)
Length of Visible Light 12h 47m
Length of Day
11h 53m
Waxing Crescent, 9% of the Moon is Illuminated
Mar 14
Waxing Crescent
Mar 19
First Quarter
Mar 27
Full
Apr 2
Last Quarter
Apr 10
New

Hourly Weather History & Observations

Time (MDT) Temp. Windchill Dew Point Humidity Pressure Visibility Wind Dir Wind Speed Gust Speed Precip Events Conditions
12:15 AM 41.2 °F 38.2 °F 31.5 °F 68% 30.22 in 10.0 mi SW 4.6 mph - N/A   Clear
12:35 AM 37.8 °F 33.3 °F 31.5 °F 78% 30.22 in 10.0 mi SSW 5.8 mph - N/A   Clear
12:55 AM 36.9 °F 30.1 °F 31.3 °F 80% 30.21 in 10.0 mi West 9.2 mph - N/A   Clear
1:15 AM 36.7 °F 30.5 °F 31.8 °F 83% 30.22 in 10.0 mi West 8.1 mph - N/A   Clear
1:35 AM 37.4 °F 30.8 °F 31.5 °F 79% 30.22 in 10.0 mi West 9.2 mph - N/A   Clear
1:55 AM 36.5 °F 31.0 °F 31.6 °F 83% 30.22 in 10.0 mi West 6.9 mph - N/A   Clear
2:15 AM 36.1 °F 30.6 °F 32.0 °F 85% 30.22 in 10.0 mi West 6.9 mph - N/A   Clear
2:35 AM 36.3 °F 30.8 °F 32.0 °F 84% 30.22 in 10.0 mi West 6.9 mph - N/A   Clear
2:55 AM 35.6 °F 29.2 °F 31.8 °F 86% 30.22 in 10.0 mi West 8.1 mph - N/A   Clear
3:15 AM 34.9 °F 28.3 °F 31.6 °F 88% 30.21 in 10.0 mi West 8.1 mph - N/A   Clear
3:35 AM 34.9 °F 27.1 °F 31.6 °F 88% 30.21 in 10.0 mi West 10.4 mph - N/A   Clear
3:55 AM 35.6 °F 27.5 °F 31.8 °F 86% 30.21 in 10.0 mi WNW 11.5 mph - N/A   Clear
4:15 AM 35.6 °F 28.6 °F 31.6 °F 85% 30.21 in 10.0 mi West 9.2 mph - N/A   Clear
4:35 AM 34.9 °F 32.0 °F 31.3 °F 87% 30.22 in 10.0 mi WSW 3.5 mph - N/A   Clear
4:55 AM 34.7 °F 28.1 °F 30.9 °F 86% 30.22 in 10.0 mi WSW 8.1 mph - N/A   Clear
5:15 AM 33.3 °F 27.1 °F 30.4 °F 89% 30.23 in 10.0 mi West 6.9 mph - N/A   Clear
5:35 AM 33.8 °F 27.0 °F 30.9 °F 89% 30.24 in 10.0 mi West 8.1 mph - N/A   Clear
5:55 AM 32.9 °F 25.9 °F 30.0 °F 89% 30.24 in 10.0 mi West 8.1 mph - N/A   Clear
6:15 AM 34.2 °F 29.0 °F 29.5 °F 83% 30.25 in 10.0 mi SW 5.8 mph - N/A   Clear
6:35 AM 35.8 °F 27.8 °F 29.5 °F 78% 30.25 in 10.0 mi West 11.5 mph - N/A   Clear
6:55 AM 33.1 °F 26.9 °F 29.3 °F 86% 30.26 in 10.0 mi West 6.9 mph - N/A   Clear
7:15 AM 33.4 °F 27.3 °F 29.8 °F 87% 30.27 in 10.0 mi West 6.9 mph - N/A   Clear
7:35 AM 33.3 °F 27.1 °F 30.2 °F 89% 30.27 in 10.0 mi West 6.9 mph - N/A   Clear
7:55 AM 34.9 °F 32.0 °F 31.1 °F 86% 30.28 in 10.0 mi WSW 3.5 mph - N/A   Clear
8:15 AM 36.5 °F 31.8 °F 31.6 °F 83% 30.28 in 10.0 mi West 5.8 mph - N/A   Clear
8:35 AM 38.1 °F 34.6 °F 32.0 °F 79% 30.29 in 10.0 mi West 4.6 mph - N/A   Clear
8:55 AM 41.4 °F 36.8 °F 32.5 °F 71% 30.30 in 10.0 mi West 6.9 mph - N/A   Clear
9:15 AM 43.0 °F 41.3 °F 32.9 °F 68% 30.30 in 10.0 mi SW 3.5 mph - N/A   Clear
9:35 AM 44.4 °F 42.0 °F 32.4 °F 63% 30.29 in 10.0 mi WSW 4.6 mph - N/A   Clear
9:55 AM 47.3 °F - 34.2 °F 60% 30.30 in 10.0 mi WSW 8.1 mph - N/A   Clear
10:15 AM 49.1 °F - 34.3 °F 57% 30.30 in 10.0 mi WSW 9.2 mph - N/A   Clear
10:35 AM 51.1 °F - 34.2 °F 52% 30.30 in 10.0 mi WSW 9.2 mph - N/A   Clear
10:55 AM 53.8 °F - 32.7 °F 45% 30.29 in 10.0 mi West 8.1 mph - N/A   Clear
11:15 AM 56.5 °F - 32.7 °F 41% 30.28 in 10.0 mi WSW 5.8 mph - N/A   Clear
11:35 AM 58.8 °F - 31.8 °F 36% 30.28 in 10.0 mi SSW 5.8 mph - N/A   Clear
11:55 AM 61.0 °F - 29.3 °F 30% 30.28 in 10.0 mi WSW 3.5 mph - N/A   Clear
12:15 PM 61.7 °F - 30.0 °F 30% 30.27 in 10.0 mi SW 5.8 mph - N/A   Clear
12:35 PM 64.2 °F - 29.8 °F 27% 30.26 in 10.0 mi SW 8.1 mph - N/A   Clear
12:55 PM 65.3 °F - 28.8 °F 25% 30.25 in 10.0 mi WSW 6.9 mph - N/A   Clear
1:15 PM 66.6 °F - 26.6 °F 22% 30.24 in 10.0 mi SW 5.8 mph - N/A   Clear
1:35 PM 67.6 °F - 26.6 °F 21% 30.23 in 10.0 mi SW 9.2 mph - N/A   Clear
1:55 PM 68.2 °F - 25.0 °F 20% 30.22 in 10.0 mi SW 8.1 mph - N/A   Clear
2:15 PM 68.4 °F - 24.6 °F 19% 30.21 in 10.0 mi WSW 5.8 mph - N/A   Clear
2:35 PM 69.4 °F - 24.1 °F 18% 30.20 in 10.0 mi SW 3.5 mph - N/A   Clear
2:55 PM 69.6 °F - 23.2 °F 17% 30.19 in 10.0 mi SW 6.9 mph 17.3 mph N/A   Clear
3:15 PM 70.2 °F - 21.6 °F 16% 30.18 in 10.0 mi SW 10.4 mph 18.4 mph N/A   Clear
3:35 PM 70.2 °F - 19.9 °F 15% 30.18 in 10.0 mi SW 9.2 mph - N/A   Clear
3:55 PM 69.8 °F - 21.7 °F 16% 30.17 in 10.0 mi SSW 11.5 mph - N/A   Clear
4:15 PM 69.4 °F - 23.7 °F 18% 30.17 in 10.0 mi SSW 9.2 mph 16.1 mph N/A   Clear
4:35 PM 69.8 °F - 23.5 °F 18% 30.16 in 10.0 mi SSW 9.2 mph - N/A   Clear
4:55 PM 68.7 °F - 24.4 °F 19% 30.15 in 10.0 mi WSW 10.4 mph 16.1 mph N/A   Clear
5:15 PM 67.1 °F - 26.1 °F 21% 30.15 in 10.0 mi South 10.4 mph - N/A   Clear
5:35 PM 66.2 °F - 26.8 °F 23% 30.15 in 10.0 mi South 8.1 mph - N/A   Clear
5:55 PM 64.2 °F - 29.3 °F 27% 30.15 in 10.0 mi SSW 8.1 mph - N/A   Clear
6:15 PM 63.9 °F - 30.9 °F 29% 30.15 in 10.0 mi SSW 5.8 mph - N/A   Clear
6:35 PM 61.0 °F - 31.5 °F 33% 30.15 in 10.0 mi SSW 5.8 mph - N/A   Clear
6:55 PM 57.9 °F - 32.2 °F 38% 30.15 in 10.0 mi SW 5.8 mph - N/A   Clear
7:15 PM 55.0 °F - 31.5 °F 41% 30.15 in 10.0 mi SSW 5.8 mph - N/A   Clear
7:35 PM 53.8 °F - 32.2 °F 44% 30.15 in 10.0 mi SSW 5.8 mph - N/A   Clear
7:55 PM 55.0 °F - 31.1 °F 40% 30.14 in 10.0 mi SSW 6.9 mph - N/A   Clear
8:15 PM 52.7 °F - 31.6 °F 45% 30.14 in 10.0 mi SSW 5.8 mph - N/A   Clear
8:35 PM 50.9 °F - 31.1 °F 47% 30.14 in 10.0 mi WSW 4.6 mph - N/A   Clear
8:55 PM 50.9 °F - 31.1 °F 47% 30.14 in 10.0 mi WSW 3.5 mph - N/A   Clear
9:15 PM 50.4 °F - 31.8 °F 49% 30.15 in 10.0 mi West 4.6 mph - N/A   Clear
9:35 PM 51.1 °F - 30.7 °F 46% 30.14 in 10.0 mi West 5.8 mph - N/A   Clear
9:55 PM 49.1 °F - 31.1 °F 50% 30.15 in 10.0 mi WNW 8.1 mph - N/A   Clear
10:15 PM 50.0 °F - 30.2 °F 47% 30.15 in 10.0 mi West 6.9 mph - N/A   Clear
10:35 PM 50.9 °F - 28.4 °F 42% 30.13 in 10.0 mi West 5.8 mph - N/A   Clear
10:55 PM 49.6 °F - 28.9 °F 45% 30.13 in 10.0 mi West 4.6 mph - N/A   Clear
11:15 PM 50.0 °F - 29.3 °F 45% 30.13 in 10.0 mi WNW 5.8 mph - N/A   Clear
11:35 PM 47.3 °F - 30.7 °F 53% 30.12 in 10.0 mi West 5.8 mph - N/A   Clear
11:55 PM 44.8 °F 41.0 °F 31.1 °F 59% 30.11 in 10.0 mi West 6.9 mph - N/A   Clear